Location: Windsor
(43.2292°N, 89.3015°W)
Time: 00:41:50
(UTC+00:00)

ISS - Visible Passes

Search period start: 27 January 2022 00:00
Search period end: 06 February 2022 00:00
Orbit: 413 x 422 km, 51.6° (Epoch: 26 January)

Date Brightness Start Highest point End Pass type
(mag) Time Alt. Az. Time Alt. Az. Time Alt. Az.
27 Jan -1.4 01:04:53 10° NW 01:06:18 17° NNW 01:06:18 17° NNW visible
28 Jan -1.9 00:16:42 10° NW 00:19:10 19° N 00:20:14 16° NNE visible
28 Jan -1.9 23:28:25 10° NW 23:30:53 19° N 23:33:23 10° NE visible
29 Jan -1.7 01:05:33 10° NW 01:07:08 20° NNW 01:07:08 20° NNW visible
30 Jan -2.2 00:17:31 10° NW 00:20:13 22° NNE 00:21:08 20° NE visible
31 Jan -2.3 01:06:04 10° NW 01:08:08 31° NNW 01:08:08 31° NNW visible
01 Feb -2.8 00:18:05 10° NW 00:21:09 33° NNE 00:22:17 25° ENE visible
01 Feb -0.5 01:54:48 10° WNW 01:55:14 13° WNW 01:55:14 13° WNW visible
02 Feb -3.3 01:06:40 10° WNW 01:09:29 59° W 01:09:29 59° W visible
03 Feb -3.8 00:18:36 10° NW 00:21:56 67° NNE 00:23:54 22° ESE visible
03 Feb -0.5 01:56:09 10° W 01:56:52 13° WSW 01:56:52 13° WSW visible
04 Feb -1.9 01:07:34 10° WNW 01:10:27 27° SW 01:11:27 23° SSW visible
05 Feb -2.8 00:19:17 10° WNW 00:22:30 46° SW 00:25:42 10° SE visible
